Location: Colebrook
(42.0017°N, 73.0973°W)
Time: 14:38:29
(UTC-05:00)

Vanguard 2 - Pass Details

Date: 03 November 2021
Orbit: 554 x 2936 km, 32.9° (Epoch: 04 December)

Event Time Altitude Azimuth Distance (km) Brightness Sun altitude
Rises 22:01:29 0° 226° (SW) 6,493 12.4 -47.5°
Reaches altitude 10° 22:05:54 10° 221° (SW) 5,634 12.0 -48.2°
Enters shadow 22:13:41 30° 203° (SSW) 4,307 11.1 -49.5°
